Time,TemperatureF,DewpointF,PressureIn,WindDirection,WindDirectionDegrees,WindSpeedMPH,WindSpeedGustMPH,Humidity,HourlyPrecipIn,Conditions,Clouds,dailyrainin,SoftwareType,DateUTC
2013-02-27 00:02:00,-999.0,-99.9,29.28,NE,52,13.0,22.0,-999,-99.99,,,-99.99,,2013-02-27 09:02:00,
2013-02-27 00:12:00,-999.0,-99.9,29.28,NE,49,15.0,23.0,-999,-99.99,,,-99.99,,2013-02-27 09:12:00,
2013-02-27 00:22:00,32.0,-99.9,29.28,NE,52,16.0,23.0,-999,-99.99,,,-99.99,,2013-02-27 09:22:00,
2013-02-27 00:32:00,-999.0,-99.9,29.27,NE,47,19.0,25.0,-999,-99.99,,,-99.99,,2013-02-27 09:32:00,
2013-02-27 00:42:00,-999.0,-99.9,29.26,NE,51,17.0,27.0,-999,-99.99,,,-99.99,,2013-02-27 09:42:00,
2013-02-27 00:52:00,31.0,-99.9,29.26,NE,47,19.0,25.0,-999,-99.99,,,-99.99,,2013-02-27 09:52:00,
2013-02-27 01:01:00,-999.0,-99.9,29.27,NE,50,16.0,24.0,-999,-99.99,,,-99.99,,2013-02-27 10:01:00,
2013-02-27 01:12:00,-999.0,-99.9,29.27,NE,52,18.0,27.0,-999,-99.99,,,-99.99,,2013-02-27 10:12:00,
2013-02-27 01:22:00,-999.0,-99.9,29.26,NE,46,17.0,25.0,-999,-99.99,,,-99.99,,2013-02-27 10:22:00,
2013-02-27 01:32:00,32.0,-99.9,29.27,NE,46,17.0,22.0,-999,-99.99,,,-99.99,,2013-02-27 10:32:00,
2013-02-27 01:42:00,-999.0,-99.9,29.26,NE,48,18.0,24.0,-999,-99.99,,,-99.99,,2013-02-27 10:42:00,
2013-02-27 01:53:00,32.0,-99.9,29.26,NE,51,16.0,26.0,-999,-99.99,,,-99.99,,2013-02-27 10:53:00,
2013-02-27 02:03:00,32.0,-99.9,29.26,NE,52,17.0,23.0,-999,-99.99,,,-99.99,,2013-02-27 11:03:00,
2013-02-27 02:12:00,32.0,-99.9,29.26,NE,47,15.0,21.0,-999,-99.99,,,-99.99,,2013-02-27 11:12:00,
2013-02-27 02:22:00,32.0,-99.9,29.26,NE,46,13.0,21.0,-999,-99.99,,,-99.99,,2013-02-27 11:22:00,
2013-02-27 02:32:00,32.0,-99.9,29.26,NE,42,14.0,20.0,-999,-99.99,,,-99.99,,2013-02-27 11:32:00,
2013-02-27 02:42:00,-999.0,-99.9,29.26,NE,40,12.0,22.0,-999,-99.99,,,-99.99,,2013-02-27 11:42:00,
2013-02-27 02:52:00,-999.0,-99.9,29.25,NE,44,15.0,24.0,-999,-99.99,,,-99.99,,2013-02-27 11:52:00,
2013-02-27 03:02:00,32.0,-99.9,29.25,NE,44,14.0,23.0,-999,-99.99,,,-99.99,,2013-02-27 12:02:00,
2013-02-27 03:13:00,32.0,-99.9,29.25,NE,44,14.0,23.0,-999,-99.99,,,-99.99,,2013-02-27 12:13:00,
2013-02-27 03:22:00,32.0,-99.9,29.24,NE,50,16.0,23.0,-999,-99.99,,,-99.99,,2013-02-27 12:22:00,
2013-02-27 03:33:00,32.0,-99.9,29.24,NE,38,16.0,23.0,-999,-99.99,,,-99.99,,2013-02-27 12:33:00,
2013-02-27 03:42:00,-999.0,-99.9,29.23,NE,44,13.0,21.0,-999,-99.99,,,-99.99,,2013-02-27 12:42:00,
2013-02-27 03:53:00,-999.0,-99.9,29.23,NE,42,13.0,21.0,-999,-99.99,,,-99.99,,2013-02-27 12:53:00,
2013-02-27 04:03:00,-999.0,-99.9,29.23,NE,41,14.0,23.0,-999,-99.99,,,-99.99,,2013-02-27 13:03:00,
2013-02-27 04:12:00,32.0,-99.9,29.23,NE,43,13.0,18.0,-999,-99.99,,,-99.99,,2013-02-27 13:12:00,
2013-02-27 04:22:00,-999.0,-99.9,29.23,NE,40,14.0,19.0,-999,-99.99,,,-99.99,,2013-02-27 13:22:00,
2013-02-27 04:32:00,-999.0,-99.9,29.22,NE,40,15.0,22.0,-999,-99.99,,,-99.99,,2013-02-27 13:32:00,
2013-02-27 04:42:00,-999.0,-99.9,29.22,NE,42,12.0,19.0,-999,-99.99,,,-99.99,,2013-02-27 13:42:00,
2013-02-27 04:53:00,-999.0,-99.9,29.22,NNE,28,12.0,17.0,-999,-99.99,,,-99.99,,2013-02-27 13:53:00,
2013-02-27 05:02:00,-999.0,-99.9,29.22,NE,43,13.0,19.0,-999,-99.99,,,-99.99,,2013-02-27 14:02:00,
2013-02-27 05:12:00,-999.0,-99.9,29.22,NE,50,12.0,15.0,-999,-99.99,,,-99.99,,2013-02-27 14:12:00,
2013-02-27 05:22:00,31.0,-99.9,29.22,NE,52,13.0,19.0,-999,-99.99,,,-99.99,,2013-02-27 14:22:00,
2013-02-27 05:32:00,-999.0,-99.9,29.21,ENE,58,14.0,18.0,-999,-99.99,,,-99.99,,2013-02-27 14:32:00,
2013-02-27 05:42:00,31.0,-99.9,29.21,ENE,57,14.0,21.0,-999,-99.99,,,-99.99,,2013-02-27 14:42:00,
2013-02-27 05:53:00,-999.0,-99.9,29.21,ENE,59,13.0,16.0,-999,-99.99,,,-99.99,,2013-02-27 14:53:00,
2013-02-27 06:02:00,-999.0,-99.9,29.21,ENE,59,13.0,17.0,-999,-99.99,,,-99.99,,2013-02-27 15:02:00,
2013-02-27 06:12:00,-999.0,-99.9,29.21,ENE,60,16.0,19.0,-999,-99.99,,,-99.99,,2013-02-27 15:12:00,
2013-02-27 06:23:00,31.0,-99.9,29.20,NE,54,15.0,19.0,-999,-99.99,,,-99.99,,2013-02-27 15:23:00,
2013-02-27 06:32:00,-999.0,-99.9,29.20,NE,49,15.0,22.0,-999,-99.99,,,-99.99,,2013-02-27 15:32:00,
2013-02-27 06:42:00,-999.0,-99.9,29.20,NE,47,15.0,21.0,-999,-99.99,,,-99.99,,2013-02-27 15:42:00,
2013-02-27 06:52:00,31.0,-99.9,29.20,NE,50,15.0,21.0,-999,-99.99,,,-99.99,,2013-02-27 15:52:00,
2013-02-27 07:02:00,-999.0,-99.9,29.20,NE,49,16.0,21.0,-999,-99.99,,,-99.99,,2013-02-27 16:02:00,
2013-02-27 07:12:00,31.0,-99.9,29.19,NE,47,14.0,24.0,-999,-99.99,,,-99.99,,2013-02-27 16:12:00,
2013-02-27 07:22:00,-999.0,-99.9,29.19,NE,52,18.0,24.0,-999,-99.99,,,-99.99,,2013-02-27 16:22:00,
2013-02-27 07:32:00,-999.0,-99.9,29.19,NE,50,16.0,23.0,-999,-99.99,,,-99.99,,2013-02-27 16:32:00,
2013-02-27 07:42:00,-999.0,-99.9,29.19,NE,49,18.0,24.0,-999,-99.99,,,-99.99,,2013-02-27 16:42:00,
2013-02-27 07:52:00,-999.0,-99.9,29.20,NE,47,14.0,21.0,-999,-99.99,,,-99.99,,2013-02-27 16:52:00,
2013-02-27 08:02:00,-999.0,-99.9,29.19,NE,51,15.0,23.0,-999,-99.99,,,-99.99,,2013-02-27 17:02:00,
2013-02-27 08:11:00,-999.0,-99.9,29.19,NE,51,15.0,23.0,-999,-99.99,,,-99.99,,2013-02-27 17:11:00,
2013-02-27 08:22:00,31.0,-99.9,29.19,NE,51,17.0,23.0,-999,-99.99,,,-99.99,,2013-02-27 17:22:00,
2013-02-27 08:32:00,-999.0,-99.9,29.19,NE,48,16.0,24.0,-999,-99.99,,,-99.99,,2013-02-27 17:32:00,
2013-02-27 08:42:00,31.0,-99.9,29.19,NE,48,15.0,23.0,-999,-99.99,,,-99.99,,2013-02-27 17:42:00,
2013-02-27 08:52:00,-999.0,-99.9,29.18,NE,46,16.0,22.0,-999,-99.99,,,-99.99,,2013-02-27 17:52:00,
2013-02-27 09:02:00,-999.0,-99.9,29.18,NE,54,17.0,22.0,-999,-99.99,,,-99.99,,2013-02-27 18:02:00,
2013-02-27 09:11:00,-999.0,-99.9,29.18,NE,56,15.0,23.0,-999,-99.99,,,-99.99,,2013-02-27 18:11:00,
2013-02-27 09:22:00,-999.0,-99.9,29.18,NE,53,15.0,21.0,-999,-99.99,,,-99.99,,2013-02-27 18:22:00,
2013-02-27 09:32:00,-999.0,-99.9,29.18,NE,54,15.0,23.0,-999,-99.99,,,-99.99,,2013-02-27 18:32:00,
2013-02-27 09:42:00,-999.0,-99.9,29.18,ENE,58,16.0,19.0,-999,-99.99,,,-99.99,,2013-02-27 18:42:00,
2013-02-27 09:52:00,-999.0,-99.9,29.18,ENE,60,17.0,24.0,-999,-99.99,,,-99.99,,2013-02-27 18:52:00,
2013-02-27 10:02:00,32.0,-99.9,29.18,ENE,59,17.0,24.0,-999,-99.99,,,-99.99,,2013-02-27 19:02:00,
2013-02-27 10:12:00,32.0,-99.9,29.18,ENE,58,16.0,22.0,-999,-99.99,,,-99.99,,2013-02-27 19:12:00,
2013-02-27 10:22:00,32.0,-99.9,29.18,ENE,60,20.0,26.0,-999,-99.99,,,-99.99,,2013-02-27 19:22:00,
2013-02-27 10:32:00,32.0,-99.9,29.19,NE,54,18.0,23.0,-999,-99.99,,,-99.99,,2013-02-27 19:32:00,
2013-02-27 10:42:00,33.0,-99.9,29.18,ENE,62,21.0,28.0,-999,-99.99,,,-99.99,,2013-02-27 19:42:00,
2013-02-27 10:52:00,33.0,-99.9,29.19,ENE,61,15.0,23.0,-999,-99.99,,,-99.99,,2013-02-27 19:52:00,
2013-02-27 11:02:00,33.0,-99.9,29.19,ENE,62,19.0,26.0,-999,-99.99,,,-99.99,,2013-02-27 20:02:00,
2013-02-27 11:12:00,33.0,-99.9,29.18,ENE,57,18.0,26.0,-999,-99.99,,,-99.99,,2013-02-27 20:12:00,
2013-02-27 11:22:00,33.0,-99.9,29.19,ENE,57,16.0,29.0,-999,-99.99,,,-99.99,,2013-02-27 20:22:00,
2013-02-27 11:32:00,33.0,-99.9,29.19,ENE,62,16.0,26.0,-999,-99.99,,,-99.99,,2013-02-27 20:32:00,
2013-02-27 11:42:00,33.0,-99.9,29.19,ENE,58,21.0,27.0,-999,-99.99,,,-99.99,,2013-02-27 20:42:00,
2013-02-27 11:53:00,33.0,-99.9,29.19,ENE,63,26.0,30.0,-999,-99.99,,,-99.99,,2013-02-27 20:53:00,
2013-02-27 12:02:00,33.0,-99.9,29.20,ENE,60,20.0,26.0,-999,-99.99,,,-99.99,,2013-02-27 21:02:00,
2013-02-27 12:11:00,33.0,-99.9,29.20,ENE,64,20.0,32.0,-999,-99.99,,,-99.99,,2013-02-27 21:11:00,
2013-02-27 12:22:00,33.0,-99.9,29.20,ENE,59,19.0,27.0,-999,-99.99,,,-99.99,,2013-02-27 21:22:00,
2013-02-27 12:32:00,33.0,-99.9,29.21,ENE,66,20.0,25.0,-999,-99.99,,,-99.99,,2013-02-27 21:32:00,
2013-02-27 12:42:00,33.0,-99.9,29.21,ENE,64,18.0,25.0,-999,-99.99,,,-99.99,,2013-02-27 21:42:00,
2013-02-27 12:52:00,33.0,-99.9,29.21,ENE,66,17.0,27.0,-999,-99.99,,,-99.99,,2013-02-27 21:52:00,
2013-02-27 13:02:00,33.0,-99.9,29.22,ENE,59,19.0,24.0,-999,-99.99,,,-99.99,,2013-02-27 22:02:00,
2013-02-27 13:12:00,33.0,-99.9,29.22,ENE,67,17.0,21.0,-999,-99.99,,,-99.99,,2013-02-27 22:12:00,
2013-02-27 13:22:00,33.0,-99.9,29.22,ENE,57,19.0,24.0,-999,-99.99,,,-99.99,,2013-02-27 22:22:00,
2013-02-27 13:32:00,33.0,-99.9,29.22,ENE,61,17.0,22.0,-999,-99.99,,,-99.99,,2013-02-27 22:32:00,
2013-02-27 13:42:00,34.0,-99.9,29.22,ENE,57,17.0,21.0,-999,-99.99,,,-99.99,,2013-02-27 22:42:00,
2013-02-27 13:52:00,34.0,-99.9,29.23,ENE,57,15.0,21.0,-999,-99.99,,,-99.99,,2013-02-27 22:52:00,
2013-02-27 14:02:00,34.0,-99.9,29.23,NE,55,19.0,26.0,-999,-99.99,,,-99.99,,2013-02-27 23:02:00,
2013-02-27 14:12:00,33.0,-99.9,29.23,NE,47,17.0,22.0,-999,-99.99,,,-99.99,,2013-02-27 23:12:00,
2013-02-27 14:22:00,34.0,-99.9,29.23,NE,54,13.0,17.0,-999,-99.99,,,-99.99,,2013-02-27 23:22:00,
2013-02-27 14:32:00,34.0,-99.9,29.23,ENE,61,15.0,22.0,-999,-99.99,,,-99.99,,2013-02-27 23:32:00,
2013-02-27 14:42:00,33.0,-99.9,29.22,ENE,58,17.0,22.0,-999,-99.99,,,-99.99,,2013-02-27 23:42:00,
2013-02-27 14:53:00,33.0,-99.9,29.22,ENE,62,12.0,22.0,-999,-99.99,,,-99.99,,2013-02-27 23:53:00,
2013-02-27 15:02:00,34.0,-99.9,29.22,ENE,61,17.0,22.0,-999,-99.99,,,-99.99,,2013-02-28 00:02:00,
2013-02-27 15:13:00,33.0,-99.9,29.22,NE,56,15.0,21.0,-999,-99.99,,,-99.99,,2013-02-28 00:13:00,
2013-02-27 15:22:00,33.0,-99.9,29.23,ENE,61,18.0,23.0,-999,-99.99,,,-99.99,,2013-02-28 00:22:00,
2013-02-27 15:32:00,34.0,-99.9,29.23,ENE,60,19.0,28.0,-999,-99.99,,,-99.99,,2013-02-28 00:32:00,
2013-02-27 15:42:00,34.0,-99.9,29.23,ENE,62,14.0,20.0,-999,-99.99,,,-99.99,,2013-02-28 00:42:00,
2013-02-27 15:52:00,34.0,-99.9,29.22,ENE,59,17.0,22.0,-999,-99.99,,,-99.99,,2013-02-28 00:52:00,
2013-02-27 16:01:00,34.0,-99.9,29.23,ENE,57,19.0,24.0,-999,-99.99,,,-99.99,,2013-02-28 01:01:00,
2013-02-27 16:11:00,34.0,-99.9,29.23,ENE,64,14.0,23.0,-999,-99.99,,,-99.99,,2013-02-28 01:11:00,
2013-02-27 16:22:00,34.0,-99.9,29.22,ENE,58,21.0,26.0,-999,-99.99,,,-99.99,,2013-02-28 01:22:00,
2013-02-27 16:32:00,34.0,-99.9,29.22,ENE,65,19.0,26.0,-999,-99.99,,,-99.99,,2013-02-28 01:32:00,
2013-02-27 16:42:00,34.0,-99.9,29.22,ENE,66,18.0,25.0,-999,-99.99,,,-99.99,,2013-02-28 01:42:00,
2013-02-27 16:52:00,34.0,-99.9,29.23,ENE,66,19.0,26.0,-999,-99.99,,,-99.99,,2013-02-28 01:52:00,
2013-02-27 17:01:00,34.0,-99.9,29.23,ENE,61,19.0,27.0,-999,-99.99,,,-99.99,,2013-02-28 02:01:00,
2013-02-27 17:11:00,34.0,-99.9,29.23,ENE,62,18.0,26.0,-999,-99.99,,,-99.99,,2013-02-28 02:11:00,
2013-02-27 17:22:00,34.0,-99.9,29.23,ENE,63,19.0,24.0,-999,-99.99,,,-99.99,,2013-02-28 02:22:00,
2013-02-27 17:32:00,34.0,-99.9,29.23,ENE,67,18.0,25.0,-999,-99.99,,,-99.99,,2013-02-28 02:32:00,
2013-02-27 17:42:00,34.0,-99.9,29.23,ENE,67,18.0,25.0,-999,-99.99,,,-99.99,,2013-02-28 02:42:00,
2013-02-27 17:52:00,34.0,-99.9,29.23,ENE,67,18.0,25.0,-999,-99.99,,,-99.99,,2013-02-28 02:52:00,
2013-02-27 18:02:00,34.0,-99.9,29.23,ENE,61,15.0,21.0,-999,-99.99,,,-99.99,,2013-02-28 03:02:00,
2013-02-27 18:11:00,34.0,-99.9,29.23,ENE,64,16.0,22.0,-999,-99.99,,,-99.99,,2013-02-28 03:11:00,
2013-02-27 18:22:00,34.0,-99.9,29.23,ENE,60,16.0,22.0,-999,-99.99,,,-99.99,,2013-02-28 03:22:00,
2013-02-27 18:32:00,33.0,-99.9,29.23,ENE,62,14.0,24.0,-999,-99.99,,,-99.99,,2013-02-28 03:32:00,
2013-02-27 18:42:00,34.0,-99.9,29.23,ENE,59,19.0,23.0,-999,-99.99,,,-99.99,,2013-02-28 03:42:00,
2013-02-27 18:52:00,33.0,-99.9,29.24,NE,54,16.0,21.0,-999,-99.99,,,-99.99,,2013-02-28 03:52:00,
2013-02-27 19:02:00,34.0,-99.9,29.24,ENE,61,17.0,24.0,-999,-99.99,,,-99.99,,2013-02-28 04:02:00,
2013-02-27 19:11:00,33.0,-99.9,29.24,ENE,62,15.0,24.0,-999,-99.99,,,-99.99,,2013-02-28 04:11:00,
2013-02-27 19:22:00,34.0,-99.9,29.24,ENE,58,15.0,19.0,-999,-99.99,,,-99.99,,2013-02-28 04:22:00,
2013-02-27 19:32:00,33.0,-99.9,29.25,ENE,57,14.0,20.0,-999,-99.99,,,-99.99,,2013-02-28 04:32:00,
2013-02-27 19:42:00,34.0,-99.9,29.25,NE,56,15.0,20.0,-999,-99.99,,,-99.99,,2013-02-28 04:42:00,
2013-02-27 19:52:00,33.0,-99.9,29.25,NE,53,16.0,21.0,-999,-99.99,,,-99.99,,2013-02-28 04:52:00,
2013-02-27 20:02:00,33.0,-99.9,29.25,NE,50,14.0,19.0,-999,-99.99,,,-99.99,,2013-02-28 05:02:00,
2013-02-27 20:11:00,33.0,-99.9,29.25,NE,55,17.0,24.0,-999,-99.99,,,-99.99,,2013-02-28 05:11:00,
2013-02-27 20:22:00,33.0,-99.9,29.25,ENE,60,17.0,24.0,-999,-99.99,,,-99.99,,2013-02-28 05:22:00,
2013-02-27 20:32:00,33.0,-99.9,29.25,NE,54,17.0,26.0,-999,-99.99,,,-99.99,,2013-02-28 05:32:00,
2013-02-27 20:43:00,33.0,-99.9,29.25,ENE,60,17.0,24.0,-999,-99.99,,,-99.99,,2013-02-28 05:43:00,
2013-02-27 20:52:00,33.0,-99.9,29.25,ENE,58,17.0,24.0,-999,-99.99,,,-99.99,,2013-02-28 05:52:00,
2013-02-27 21:02:00,33.0,-99.9,29.26,ENE,59,17.0,24.0,-999,-99.99,,,-99.99,,2013-02-28 06:02:00,
2013-02-27 21:11:00,33.0,-99.9,29.26,NE,54,17.0,24.0,-999,-99.99,,,-99.99,,2013-02-28 06:11:00,
2013-02-27 21:22:00,32.0,-99.9,29.26,NE,48,16.0,21.0,-999,-99.99,,,-99.99,,2013-02-28 06:22:00,
2013-02-27 21:32:00,32.0,-99.9,29.26,NE,49,14.0,21.0,-999,-99.99,,,-99.99,,2013-02-28 06:32:00,
2013-02-27 21:42:00,-999.0,-99.9,29.26,NE,47,15.0,20.0,-999,-99.99,,,-99.99,,2013-02-28 06:42:00,
2013-02-27 21:52:00,-999.0,-99.9,29.26,NE,47,16.0,20.0,-999,-99.99,,,-99.99,,2013-02-28 06:52:00,
2013-02-27 22:01:00,-999.0,-99.9,29.26,NE,47,15.0,21.0,-999,-99.99,,,-99.99,,2013-02-28 07:01:00,
2013-02-27 22:11:00,-999.0,-99.9,29.26,NE,55,15.0,20.0,-999,-99.99,,,-99.99,,2013-02-28 07:11:00,
2013-02-27 22:22:00,-999.0,-99.9,29.26,NE,52,15.0,20.0,-999,-99.99,,,-99.99,,2013-02-28 07:22:00,
2013-02-27 22:32:00,-999.0,-99.9,29.26,NE,52,14.0,22.0,-999,-99.99,,,-99.99,,2013-02-28 07:32:00,
2013-02-27 22:42:00,-999.0,-99.9,29.26,NE,56,14.0,21.0,-999,-99.99,,,-99.99,,2013-02-28 07:42:00,
2013-02-27 22:52:00,-999.0,-99.9,29.26,NE,55,12.0,17.0,-999,-99.99,,,-99.99,,2013-02-28 07:52:00,
2013-02-27 23:01:00,-999.0,-99.9,29.26,ENE,59,16.0,21.0,-999,-99.99,,,-99.99,,2013-02-28 08:01:00,
2013-02-27 23:12:00,-999.0,-99.9,29.27,ENE,57,16.0,20.0,-999,-99.99,,,-99.99,,2013-02-28 08:12:00,
2013-02-27 23:22:00,32.0,-99.9,29.27,NE,56,14.0,18.0,-999,-99.99,,,-99.99,,2013-02-28 08:22:00,
2013-02-27 23:32:00,-999.0,-99.9,29.27,NE,53,15.0,19.0,-999,-99.99,,,-99.99,,2013-02-28 08:32:00,
2013-02-27 23:42:00,-999.0,-99.9,29.27,ENE,59,15.0,21.0,-999,-99.99,,,-99.99,,2013-02-28 08:42:00,
2013-02-27 23:53:00,32.0,-99.9,29.27,NE,54,15.0,19.0,-999,-99.99,,,-99.99,,2013-02-28 08:53:00,